User: anonymous   Login
Location: Palau
(42.3086°N, 3.1507°E)
Time: 03:17:18
(UTC+00:00)
Language:

ATLAS 3B R/B - Orbit

View from above orbital plane
View from above orbital plane
View from above satellite
View from above satellite

Ground track
Ground track

The orbit data is extracted from the following two-line orbital elements,

1 28538U 05004B   20218.04957499 0.00000000  00000-0  00000-0 0    08
2 28538  63.8303 290.9546 0102479  44.9372 315.0628 13.43132921    02
Epoch (UTC): 05 August 2020 01:11:23
Eccentricity: 0.0102479
inclination: 63.8303°
perigee height: 1021 km
apogee height: 1174 km
right ascension of ascending node: 290.9546°
argument of perigee: 44.9372°
revolutions per day: 13.43132921
mean anomaly at epoch: 315.0628°
orbit number at epoch: 0

The dashed part of the orbit path shows where the satellite is in the earth's shadow,  

DLR